Location: Recife
(8.0585°S, 34.8848°W)
Time: 23:12:23
(UTC-03:00)

N. Korean satellite - Pass Details

Date: 06 December 2022
Orbit: 407 x 442 km, 97.3° (Epoch: 05 February)

Event Time Altitude Azimuth Distance (km) Brightness Sun altitude
Rises 04:03:18 0° 15° (NNE) 2,418 10.0 -12.2°
Reaches altitude 10° 04:05:20 10° 18° (NNE) 1,543 9.0 -11.7°
Maximum altitude 04:08:37 68° 101° (E) 467 6.7 -11.0°
Drops below altitude 10° 04:11:51 10° 185° (S) 1,522 9.3 -10.2°
Sets 04:13:51 0° 187° (S) 2,382 10.3 -9.8°
